Theta_e
299 300 303 306 313 319 322 322 322 323 322 320 320 319 319 319 319 318 318 318 317 318 319 319 318 319 319 319 319 319 318 317 313 300 296 295 294 293 294 295 294 294 295
297 297 299 301 303 308 313 319 323 323 323 322 321 320 320 320 320 319 318 318 317 317 319 319 319 320 319 320 319 318 318 318 315 306 293 292 292 293 293 292 292 293 293
295 295 296 297 299 301 304 308 316 320 323 323 321 321 320 320 320 320 319 319 319 319 320 319 319 320 318 319 319 318 317 315 316 300 292 291 290 291 289 290 290 290 290
293 293 294 295 296 298 300 303 306 311 317 320 323 322 322 321 321 321 320 320 320 320 321 320 321 319 318 318 317 316 315 313 312 305 290 289 289 288 288 287 286 286 287
292 292 292 293 294 295 297 299 302 305 309 314 318 320 321 321 321 320 320 321 321 320 320 321 321 316 307 314 317 315 314 310 302 293 288 288 286 286 288 288 287 286 282
291 292 291 291 291 291 292 294 296 299 303 307 311 316 318 318 310 306 314 320 318 318 318 318 318 301 303 302 304 307 311 307 298 294 289 291 286 288 287 289 287 285 285
289 290 289 289 289 289 290 291 292 294 298 300 305 310 314 318 306 304 302 318 319 318 316 316 312 310 302 311 303 301 301 302 302 301 294 293 289 290 289 287 286 285 283
287 287 286 286 287 287 289 289 291 293 294 297 299 304 308 312 305 302 299 310 316 315 314 314 310 300 300 298 297 293 293 295 297 297 300 294 293 292 292 289 287 281 280
283 283 284 285 285 286 287 289 289 290 291 292 293 295 298 303 302 299 300 308 307 307 306 305 305 299 296 297 294 289 288 288 292 292 292 293 293 292 288 286 281 280 277
279 281 283 285 286 286 287 288 289 289 289 290 290 292 292 295 299 298 299 304 300 296 291 294 293 295 294 295 293 290 287 285 286 286 287 289 289 288 288 287 283 281 274
278 281 283 284 285 286 287 288 288 289 289 289 289 291 292 293 295 296 297 300 301 293 291 289 292 293 294 295 295 292 291 286 287 284 282 281 280 280 279 280 280 280 273
278 277 279 283 284 285 286 287 288 288 288 288 288 290 292 290 290 293 295 296 300 294 292 291 291 293 294 295 292 293 290 286 283 281 281 279 278 277 277 276 276 275 275
273 273 275 281 283 284 285 286 287 288 288 288 288 289 290 292 288 291 293 294 294 293 291 291 292 293 293 292 292 290 285 284 282 281 279 278 278 277 274 272 272 273 273
269 271 274 278 281 282 283 285 286 287 287 287 287 288 289 290 289 287 288 290 289 287 289 290 291 291 291 288 287 286 285 284 283 282 280 278 276 275 272 272 272 271 270
269 270 272 275 278 280 281 283 285 287 288 287 287 288 288 288 290 290 289 287 287 288 287 287 287 286 285 285 284 283 283 283 282 280 277 276 275 273 271 272 271 265 267
266 268 269 271 274 278 280 280 284 287 289 290 290 290 289 291 291 292 291 291 290 290 286 286 285 285 284 284 282 281 281 281 280 279 278 276 274 273 270 269 268 266 266
264 265 266 268 272 277 277 277 277 281 286 288 290 290 291 291 291 291 291 291 290 290 287 286 285 285 285 283 282 281 280 281 280 278 277 275 274 273 270 270 268 266 263
262 263 264 267 269 272 275 274 274 276 279 283 288 290 290 291 291 291 291 290 287 288 287 286 286 286 285 283 282 282 280 278 278 277 276 274 273 271 269 268 267 264 263
261 263 264 264 266 271 270 271 274 275 278 281 284 288 287 290 291 291 291 287 286 286 287 286 286 286 284 284 283 282 279 278 277 275 274 273 272 270 269 268 266 264 261
261 262 263 263 264 265 269 270 270 272 275 278 281 284 287 286 286 286 287 287 287 286 287 286 286 285 284 283 282 280 278 276 274 274 273 272 271 270 268 266 265 263 261
260 261 261 262 263 266 266 266 267 269 271 275 278 283 287 286 286 286 286 286 286 286 287 286 285 284 283 282 280 278 277 275 274 273 271 270 269 268 267 266 264 262 261
260 261 261 261 262 262 263 264 265 266 268 271 275 280 286 286 286 286 286 286 287 287 287 286 285 284 282 280 279 278 276 274 273 272 270 269 268 266 265 263 262 261 260
260 259 259 260 261 261 261 262 263 264 265 268 272 276 281 285 286 286 286 286 286 286 286 286 285 283 282 280 279 278 275 273 273 272 269 268 266 265 264 262 261 260 259
259 259 258 259 259 260 260 261 262 263 264 266 270 274 279 284 286 286 286 286 286 286 286 285 284 281 279 277 277 276 275 273 272 271 269 267 265 264 263 262 261 260 259
259 259 258 259 259 259 260 261 262 263 264 266 268 272 277 282 286 286 286 286 286 285 282 281 279 277 276 275 275 274 272 271 270 269 268 266 264 263 262 261 260 259 258
259 259 259 259 259 259 260 260 261 263 264 266 268 271 276 280 286 286 286 282 279 278 276 276 275 275 274 273 271 270 270 269 268 267 267 265 263 262 262 260 259 259 257
Wind_Speed
7 7 7 7 7 9 11 13 15 15 14 14 14 14 16 16 16 16 17 16 16 16 15 15 17 16 11 10 11 11 11 11 11 2 2 3 3 6 5 3 4 3 4
7 7 9 9 8 7 8 11 13 14 13 14 14 15 15 15 14 16 17 15 17 17 17 18 18 13 17 15 12 15 12 12 10 7 3 3 3 5 6 5 3 2 4
11 10 10 10 10 11 9 9 10 12 14 13 13 16 15 15 15 17 17 17 18 19 18 18 18 17 16 14 14 14 12 10 11 5 5 3 2 3 3 3 3 3 2
8 9 9 12 12 11 12 12 11 11 11 11 13 15 16 15 15 16 16 17 18 18 18 18 18 18 19 18 15 17 13 12 10 8 4 4 3 3 3 3 3 2 2
10 9 10 11 12 12 12 11 12 11 11 12 12 14 15 15 13 15 16 16 17 18 16 18 18 20 23 21 14 15 15 12 9 6 4 4 4 4 9 5 3 4 2
11 12 11 12 14 13 13 15 13 12 12 12 12 14 13 11 15 19 17 14 14 15 15 15 17 16 19 23 24 21 19 15 12 7 5 7 6 7 5 8 7 4 4
11 11 12 13 14 15 13 14 14 14 12 13 12 12 14 15 14 18 21 17 17 17 16 14 13 12 14 16 18 16 16 21 22 15 12 9 9 11 13 9 5 3 4
10 13 13 14 15 15 14 14 16 14 13 13 13 15 14 13 15 17 18 16 15 13 13 14 13 9 7 7 8 9 7 4 7 7 12 11 7 13 15 6 9 7 6
13 14 15 15 15 15 15 15 16 14 15 13 11 16 16 16 14 13 13 13 14 13 9 9 10 9 13 17 13 13 9 6 9 15 15 16 19 21 16 12 7 8 3
14 15 15 15 14 14 14 16 12 13 13 13 14 12 14 17 17 15 13 10 10 7 4 7 10 11 20 19 14 15 13 9 13 14 12 15 14 15 14 4 11 9 5
13 14 15 13 16 13 13 13 13 13 13 12 14 12 13 12 15 16 17 12 10 7 7 5 5 16 22 20 18 15 15 16 16 13 10 9 8 7 4 5 5 7 5
14 14 14 15 13 12 14 12 13 13 14 13 13 12 8 9 11 16 17 20 13 10 10 7 8 22 21 19 14 17 25 20 10 10 10 8 9 7 6 7 8 8 5
14 14 13 15 13 14 13 13 12 11 10 11 10 11 11 8 7 14 17 17 12 8 6 12 18 24 22 15 19 26 20 11 11 11 10 7 6 8 10 9 10 11 11
15 15 13 14 15 14 11 9 9 9 10 11 10 12 11 10 8 5 5 5 5 1 4 6 14 16 15 11 16 16 9 10 12 12 10 9 8 8 8 5 7 7 7
14 13 13 11 14 14 13 12 11 10 10 12 11 11 11 12 9 9 7 4 5 6 9 8 8 7 7 9 8 6 8 9 9 9 10 10 9 9 6 6 7 3 4
14 11 11 11 12 11 12 16 16 21 22 21 22 18 12 18 20 16 14 12 11 18 2 9 9 10 10 11 10 9 8 9 8 10 10 10 11 10 9 5 4 3 6
13 14 12 12 11 12 13 13 17 19 23 24 20 21 23 23 23 18 16 15 18 18 5 8 9 10 11 12 11 10 10 9 11 10 11 10 10 9 11 9 6 5 3
13 16 11 10 12 12 12 13 13 14 18 18 14 16 17 20 21 20 17 14 7 14 6 8 9 10 9 10 11 10 10 9 10 10 10 10 10 12 10 9 8 6 7
12 10 11 11 12 12 12 12 12 15 14 16 17 16 11 18 21 20 18 9 9 10 8 8 8 9 10 11 10 11 11 12 12 11 10 11 10 11 9 9 8 10 9
12 16 14 12 11 13 10 11 12 13 15 15 15 15 12 7 8 9 9 10 9 9 10 10 9 9 10 11 11 11 11 11 11 10 10 10 9 9 10 10 9 10 5
12 12 16 12 11 11 11 13 13 13 14 14 16 16 24 13 12 10 10 11 11 11 11 10 9 10 10 11 11 12 12 11 12 12 12 11 11 10 9 8 8 8 8
12 12 12 13 12 13 12 12 14 15 15 16 16 17 28 13 12 11 11 11 11 11 10 11 10 11 12 13 14 14 14 14 14 14 13 12 11 10 10 10 9 9 8
12 14 14 13 13 17 14 13 13 14 16 16 16 16 16 14 11 12 12 11 10 10 10 10 11 11 11 12 12 14 16 16 15 15 15 14 12 11 10 11 10 9 8
13 15 15 15 14 14 15 15 14 18 18 17 16 16 16 16 14 13 12 11 11 10 10 10 10 13 12 11 11 11 12 13 13 13 19 16 14 14 11 11 10 11 9
14 14 15 15 15 15 16 16 16 16 16 16 15 16 17 18 14 12 12 10 10 10 9 8 7 12 15 18 16 17 20 25 19 19 13 16 18 18 13 11 11 10 10
14 15 15 14 14 15 15 16 16 16 16 16 16 17 17 18 14 11 9 8 8 7 8 7 10 15 18 15 19 23 25 26 23 23 16 15 15 13 12 13 15 10 11
Wind_Direction
352 333 324 306 282 279 266 256 251 250 242 236 231 226 224 221 220 223 226 224 223 225 223 222 221 219 215 208 213 217 217 215 228 143 115 128 158 148 150 159 144 151 130
339 333 324 307 298 287 275 272 269 253 243 235 230 231 232 229 224 222 227 224 224 226 225 224 222 217 217 213 207 212 212 209 213 183 153 156 150 168 151 144 161 137 127
345 351 333 326 325 311 296 292 286 272 260 244 231 232 231 228 221 223 226 228 228 229 229 227 223 219 217 213 209 212 206 204 207 150 155 131 133 152 137 111 142 124 114
334 331 350 338 331 321 312 305 297 289 279 262 247 240 239 234 229 226 222 225 232 233 228 227 221 219 215 210 209 208 203 198 197 175 137 131 138 133 124 144 139 135 124
331 332 356 337 332 328 325 318 312 300 288 280 263 256 245 238 233 230 227 230 234 239 234 230 224 219 213 206 207 210 201 195 178 156 142 123 138 147 178 164 128 140 111
336 335 342 352 330 336 334 326 316 307 296 283 273 264 246 239 234 221 219 228 230 240 240 238 226 217 216 200 204 206 199 185 178 155 164 169 164 154 147 163 142 154 164
335 336 341 338 335 329 333 326 319 310 305 295 283 270 262 251 226 226 223 232 234 231 232 236 233 228 216 219 212 202 194 187 178 171 169 174 165 166 150 158 156 148 131
340 340 339 337 333 329 332 331 321 313 307 306 300 289 277 267 249 234 231 237 244 242 228 232 227 210 194 172 145 125 125 137 171 161 173 163 148 155 157 165 145 101 79
345 337 334 333 329 329 326 325 318 313 312 309 303 298 290 281 271 247 228 238 240 238 227 205 204 199 187 170 155 143 129 113 101 100 107 120 130 138 138 125 140 134 116
338 328 327 326 321 319 317 320 310 306 306 306 299 291 285 284 280 255 236 239 231 224 213 191 203 179 166 173 155 150 142 151 131 109 109 106 113 126 139 154 151 147 118
321 322 318 317 319 312 309 309 309 310 307 303 294 293 284 275 281 270 250 242 235 210 195 183 195 173 176 178 170 171 161 145 133 120 117 113 103 95 79 76 78 130 131
321 323 318 319 319 315 315 313 313 311 309 309 305 299 290 279 273 278 263 237 232 206 202 188 187 171 171 171 160 142 140 130 128 127 130 132 122 119 101 87 79 75 63
326 321 316 313 316 322 317 313 310 309 308 311 310 307 303 299 283 272 268 250 231 226 205 185 175 170 164 157 154 146 142 139 140 143 143 136 133 128 113 95 83 85 72
323 321 320 316 320 319 315 308 305 308 308 306 305 303 305 306 297 269 266 257 221 84 138 173 171 168 157 147 147 149 145 156 155 150 141 121 122 130 124 124 118 120 103
320 318 318 319 314 315 310 308 304 296 286 295 298 295 300 294 292 266 235 230 217 182 139 142 151 157 142 146 147 144 145 148 143 135 134 137 141 132 132 136 131 123 113
317 318 317 312 312 307 314 312 301 299 302 289 274 274 283 273 281 273 242 232 211 168 160 171 170 167 172 158 160 154 155 157 143 142 144 147 150 149 142 132 127 96 130
311 311 311 309 301 311 314 312 314 316 303 300 287 274 276 278 279 263 240 218 199 183 204 191 182 180 169 165 168 170 165 163 149 151 149 153 148 140 147 152 138 127 105
306 304 300 297 312 301 305 310 306 300 309 311 302 291 278 274 271 258 238 217 209 209 215 192 187 185 177 173 169 169 162 148 155 151 150 151 148 149 150 150 150 131 130
307 304 304 303 292 299 305 291 293 297 294 296 301 298 284 263 265 254 233 215 227 217 217 205 195 191 180 176 175 171 164 163 156 151 149 148 151 147 151 144 136 131 128
302 301 302 298 301 295 289 298 300 295 294 295 293 293 298 276 265 250 230 218 220 229 227 208 199 190 181 179 172 161 158 158 151 147 147 147 146 147 149 142 145 146 142
305 303 299 292 294 293 300 293 290 288 287 289 290 290 287 268 263 251 237 231 218 218 221 216 198 186 183 177 169 167 164 159 156 149 148 145 142 140 134 131 132 125 127
298 299 300 298 297 292 289 290 288 284 282 281 284 283 284 266 254 252 241 233 227 220 215 206 203 191 184 180 173 168 166 162 158 152 146 142 136 136 133 132 131 131 134
298 298 295 293 292 292 286 283 283 281 281 280 281 282 284 274 255 248 245 238 223 216 208 205 200 191 185 179 179 174 169 166 161 151 143 140 138 137 136 136 139 135 144
293 292 292 290 291 288 284 283 280 277 278 278 278 279 276 271 258 248 242 236 228 216 204 200 199 183 174 169 164 161 153 145 142 145 141 140 136 134 134 136 139 141 139
292 289 287 285 285 284 285 282 281 278 276 274 275 274 272 274 256 247 242 232 223 205 187 177 171 171 169 162 159 152 147 140 139 139 136 134 135 138 137 137 138 137 132
294 292 288 287 285 284 282 281 280 280 277 275 274 272 273 279 257 244 233 206 191 176 165 158 157 157 153 150 143 140 140 136 136 137 134 135 135 132 137 132 141 135 146